Regional Weather Roundup
Issued by NWS

Home | Current Version | Previous Version | Graphics & Text | Print | Product List | Glossary On
Versions: 1 2 3 4 5 6 7 8 9 10 11 12 13 14 15 16 17 18 19 20 21 22 23 24 25 26 27 28 29 30 31 32 33 34 35 36 37 38 39 40 41 42 43 44 45 46 47 48 49 50
000
ASUS45 KCYS 251210
RWRWY

WYOMING REGIONAL WEATHER ROUNDUP
NATIONAL WEATHER SERVICE CHEYENNE WY
500 AM MST THU DEC 25 2014

NOTE:  "FAIR" INDICATES FEW OR NO CLOUDS BELOW 12,000 FEET
WITH NO SIGNIFICANT WEATHER AND/OR OBSTRUCTIONS TO VISIBILITY.

WYZ001-251300-
YELLOWSTONE NATIONAL PARK

CITY           SKY/WX    TMP DP  RH WIND       PRES   REMARKS
LK YELLOWSTONE   N/A     20  15  81 VRB5      29.40R WCI  13
6HR MIN TEMP:  20; 6HR MAX TEMP:  23; 6HR PCP:  0.30;

W YELLOWSTONE  NOT AVBL

$$
WYZ002>013-054>058-071-098>099-251300-
NORTHERN WYOMING

CITY           SKY/WX    TMP DP  RH WIND       PRES   REMARKS
JACKSON        CLOUDY    27  27 100 NW3       29.35R VSB 1
CODY           CLOUDY    25  23  93 N20G32    29.54R WCI  11
GREYBULL       FLURRIES  30  29  96 NW14      29.46R WCI  19
6HR MIN TEMP:  28; 6HR MAX TEMP:  31; 6HR PCP:  0.13;

WORLAND        LGT SNOW  26  24  92 S7        29.48R VSB 3/4 WCI  18
6HR MIN TEMP:  20; 6HR MAX TEMP:  26; 6HR PCP:  0.06;

SHERIDAN       LGT SNOW  29  27  92 NW13      29.62R VSB 1   WCI  19
6HR MIN TEMP:  29; 6HR MAX TEMP:  34; 6HR PCP:  0.11;

BUFFALO        LGT SNOW  26  25  96 N20G32    29.56R FOG     WCI  12
6HR MIN TEMP:  26; 6HR MAX TEMP:  32; 6HR PCP:  0.04;

GILLETTE       LGT SNOW  28  26  92 N16       29.52R FOG     WCI  16
6HR MIN TEMP:  26; 6HR MAX TEMP:  30; 6HR PCP: TRACE;

HULETT           N/A    N/A N/A N/A MISG        N/A
NEWCASTLE      FAIR      32  23  69 CALM      29.46R

$$
WYZ014>020-022>026-101>103-251300-
CENTRAL WYOMING

CITY           SKY/WX    TMP DP  RH WIND       PRES   REMARKS
BIG PINEY      CLOUDY    22  19  89 N3        29.35S
6HR MIN TEMP:  21; 6HR MAX TEMP:  25; 6HR PCP: TRACE;

PINEDALE       LGT SNOW  28  27  93 SE13      29.35S WCI  18
DUBOIS         NOT AVBL
LANDER         CLOUDY    26  21  81 NW10      29.39R WCI  16
6HR MIN TEMP:  22; 6HR MAX TEMP:  26; 6HR PCP: TRACE;

RIVERTON       CLOUDY    27  20  75 NE16      29.39R WCI  15
6HR MIN TEMP:  19; 6HR MAX TEMP:  28;

CASPER         LGT SNOW  29  27  92 NW13      29.44R FOG     WCI  19
6HR MIN TEMP:  29; 6HR MAX TEMP:  36; 6HR PCP:  0.01;

DOUGLAS        CLOUDY    32  29  88 NW7       29.45S WCI  26
6HR MIN TEMP:  32; 6HR MAX TEMP:  43; 6HR PCP: TRACE;


$$
WYZ021-027>030-104>119-251300-
SOUTHERN WYOMING

CITY           SKY/WX    TMP DP  RH WIND       PRES   REMARKS
EVANSTON       LGT SNOW  26  25  96 W18       29.40R FOG     WCI  13
6HR MIN TEMP:  27; 6HR MAX TEMP:  34; 6HR PCP: TRACE;

KEMMERER       LGT SNOW  28  27  93 SW15      29.36R WCI  17
FORT BRIDGER   FLURRIES  29  28  94 SW17      29.40S WCI  17
ROCK SPRINGS   CLOUDY    27  18  69 SE7       29.39S WCI  19
6HR MIN TEMP:  26; 6HR MAX TEMP:  29; 6HR PCP: TRACE;

DIXON          CLOUDY    33  22  64 S15G22    29.48F WCI  23
RAWLINS        CLOUDY    29  22  75 SW22G37   29.42R WCI  15
6HR MIN TEMP:  28; 6HR MAX TEMP:  30;

SARATOGA       CLOUDY    32  25  74 S14       29.44S WCI  22
LARAMIE        FAIR      28  18  66 W12       29.38F WCI  18
6HR MIN TEMP:  28; 6HR MAX TEMP:  33;

CHEYENNE       MOCLDY    26  18  71 CALM      29.39S
6HR MIN TEMP:  24; 6HR MAX TEMP:  39;

TORRINGTON     MOCLDY    36  25  64 N13       29.41S WCI  27
6HR MIN TEMP:  33; 6HR MAX TEMP:  38;

PINE BLUFFS    CLOUDY    32  23  69 CALM      29.41S

$$


USA.gov is the U.S. government's official web portal to all federal, state and local government web resources and services.